Location: Bennemühlen
(52.5740°N, 9.7135°E)
Time: 05:47:42
(UTC+00:00)

ARIANE 6 FM1 Upper Stage - Pass Details

Date: 19 May 2025
Orbit: 530 x 611 km, 62.0° (Epoch: 22 June)

Event Time Altitude Azimuth Distance (km) Brightness Sun altitude
Rises 21:58:29 0° 258° (WSW) 2,672 6.2 -15.4°
Reaches altitude 10° 22:00:48 10° 267° (W) 1,787 5.4 -15.5°
Maximum altitude 22:04:31 35° 335° (NNW) 880 4.3 -15.7°
Drops below altitude 10° 22:08:17 10° 42° (NE) 1,819 5.7 -15.9°
Sets 22:10:40 0° 52° (NE) 2,726 6.5 -16.0°
